Location: Chuathbaluk
(61.5726°N, 159.2454°W)
Time: 03:43:15
(UTC+00:00)

Transit 4A - Pass Details

Date: 26 November 2020
Orbit: 864 x 980 km, 66.8° (Epoch: 26 January)

Event Time Altitude Azimuth Distance (km) Brightness Sun altitude
Rises 19:31:32 0° 202° (SSW) 3,644 11.4 0.4°
Reaches altitude 10° 19:34:09 10° 196° (SSW) 2,712 10.9 0.6°
Maximum altitude 19:40:10 46° 126° (SE) 1,290 9.4 1.0°
Drops below altitude 10° 19:46:15 10° 55° (NE) 2,743 10.4 1.4°
Sets 19:48:55 0° 50° (NE) 3,691 11.0 1.6°
